[[{"header":{"parameterUnit":"m.s-1","parameterCategory":1,"la1":30.2991,"la2":30.254,"lo1":-89.0895,"lo2":-89.0444,"dy":0.0017,"dx":0.0017,"nx":28,"ny":28,"refTime":"2025-02-03T09:00:00:Z","depth":0,"parameterNumber":2,"parameterNumberName":"U-component_of_WINDS"},"data":[0,0,0,0,0,0,0,0,0,0,0,0,0,0,0,0,0,0,0,0,0,0,0,0,0,0,0,0,0,0,0,0,0,0,0,0,0,0,0,0,0,0,0,0,0,0,0,0,0,0,0,0,0,0,0,0,0,0,-0.6751,-0.6751,0,-0.6769,-0.6769,-0.677,-0.6812,-0.6813,-0.6813,-0.6814,-0.6832,-0.6831,-0.6831,0,0,0,0,0,0,0,0,0,0,0,0,0,-0.6751,-0.6751,-0.6751,-0.6751,-0.6751,-0.6769,-0.6769,-0.677,-0.6812,-0.6813,-0.6814,-0.6815,-0.6832,-0.6831,-0.6831,0,0,0,0,0,0,0,0,0,0,0,0,0,-0.6758,-0.6751,-0.6751,-0.6774,-0.6777,-0.6769,-0.6769,-0.677,-0.6811,-0.6813,-0.6814,-0.6815,-0.6832,-0.6831,-0.6831,-0.6801,0,0,-0.6829,-0.6829,0,0,0,0,0,0,0,0,-0.6758,-0.6758,-0.6771,-0.6773,-0.6775,-0.679,-0.6776,-0.678,-0.6811,-0.6798,-0.6814,-0.6816,-0.6816,-0.6817,-0.6818,-0.6802,-0.6803,-0.6829,-0.6829,-0.6829,-0.6828,0,0,0,0,0,0,0,-0.6757,-0.6758,-0.6758,-0.6771,-0.6774,-0.6784,-0.6786,-0.6777,-0.68,-0.6799,-0.6802,-0.6804,-0.6818,-0.6818,-0.6818,-0.6803,-0.6829,-0.6829,-0.6828,-0.6828,-0.6764,-0.6762,0,0,0,0,0,0,-0.6753,-0.6757,-0.6757,-0.6759,-0.677,-0.6783,-0.6785,-0.6784,-0.68,-0.6804,-0.6803,-0.6806,-0.6818,-0.6819,-0.6819,-0.6785,-0.6829,-0.6828,-0.6828,-0.6765,-0.6763,-0.6762,0,0,0,0,0,0,-0.6753,-0.6753,-0.6757,-0.6759,-0.676,-0.6781,-0.6779,-0.6783,-0.6784,-0.6803,-0.6807,-0.6799,-0.682,-0.682,-0.6805,-0.6786,-0.6828,-0.6827,-0.6767,-0.6764,-0.6763,-0.6717,0,0,0,0,0,0,-0.6753,-0.6753,-0.6742,-0.6758,-0.676,-0.6743,-0.6778,-0.6783,-0.6783,-0.6787,-0.68,-0.6804,-0.6821,-0.6806,-0.6805,-0.6786,-0.6827,-0.6768,-0.6766,-0.6763,-0.672,-0.6714,-0.6708,0,0,0,0,0,-0.6753,-0.6728,-0.6741,-0.6741,-0.6747,-0.6742,-0.6742,-0.6763,-0.6781,-0.677,-0.6782,-0.6803,-0.6789,-0.6804,-0.6803,-0.6784,-0.677,-0.6766,-0.6763,-0.6723,-0.6715,-0.6708,0,0,0,0,0,0,-0.6709,-0.6731,-0.6745,-0.6725,-0.6731,-0.6749,-0.6736,-0.6754,-0.6754,-0.6758,-0.6783,-0.6786,-0.6768,-0.6775,-0.6791,-0.6756,-0.6783,-0.6779,-0.6752,-0.6745,-0.6739,-0.6737,-0.6827,0,0,0,0,0,-0.6697,-0.6691,-0.6711,-0.6691,-0.6693,-0.6714,-0.6712,-0.6728,-0.6735,-0.6737,-0.6749,-0.6754,-0.6751,-0.6749,-0.6747,-0.6722,-0.6725,-0.6708,-0.6702,-0.6697,-0.6693,-0.668,-0.6673,-0.6751,-0.6752,-0.6752,0,0,-0.6672,-0.6683,-0.6678,-0.6682,-0.6689,-0.6682,-0.6716,-0.6707,-0.6702,-0.6736,-0.6723,-0.6731,-0.6739,-0.6719,-0.6711,-0.6725,-0.6673,-0.6693,-0.6689,-0.6688,-0.6676,-0.6669,-0.6662,-0.6749,-0.675,-0.675,0,0,-0.6622,-0.6631,-0.6615,-0.6621,-0.6631,-0.6645,-0.6641,-0.6656,-0.6662,-0.665,-0.6675,-0.6669,-0.6664,-0.6668,-0.667,-0.6622,-0.6641,-0.6621,-0.6588,-0.6575,-0.6569,-0.6563,-0.6546,-0.6539,-0.6618,-0.6617,-0.6617,0,-0.659,-0.6581,-0.6605,-0.6594,-0.6595,-0.6626,-0.661,-0.6615,-0.6623,-0.6623,-0.6638,-0.6631,-0.6639,-0.662,-0.6609,-0.6609,-0.6605,-0.6619,-0.6568,-0.6563,-0.6558,-0.6541,-0.6535,-0.6615,-0.6615,-0.6615,-0.6616,0,-0.654,-0.6534,-0.652,-0.6527,-0.6527,-0.6514,-0.6535,-0.6531,-0.6547,-0.6559,-0.6545,-0.6556,-0.6556,-0.6553,-0.6568,-0.6536,-0.6544,-0.6563,-0.659,-0.6547,-0.6532,-0.6526,-0.6611,-0.6612,-0.6613,-0.6614,0,0,-0.6463,-0.6484,-0.6478,-0.6482,-0.6495,-0.649,-0.6478,-0.6479,-0.6476,-0.648,-0.6471,-0.6465,-0.6483,-0.6484,-0.65,-0.6489,-0.645,-0.6509,-0.651,-0.6497,-0.6414,-0.6399,-0.6391,-0.6463,-0.6462,-0.6461,-0.6413,0,-0.6416,-0.6397,-0.6418,-0.6394,-0.6388,-0.6418,-0.6408,-0.6414,-0.6425,-0.6421,-0.6434,-0.6429,-0.6453,-0.6454,-0.6444,-0.6456,-0.6433,-0.646,-0.6453,-0.6452,-0.6449,-0.6383,-0.6367,-0.6322,-0.6407,-0.6406,-0.6406,0,-0.6358,-0.636,-0.6336,-0.6351,-0.6349,-0.634,-0.6342,-0.6338,-0.6346,-0.6355,-0.6357,-0.6376,-0.6365,-0.6392,-0.6377,-0.6395,-0.6393,-0.6398,-0.6397,-0.6396,-0.6425,-0.6379,-0.6308,-0.63,-0.6397,-0.6397,-0.6398,0,-0.6303,-0.63,-0.6285,-0.6288,-0.6304,-0.6297,-0.6303,-0.6313,-0.6312,-0.6314,-0.6314,-0.6314,-0.6314,-0.6314,-0.6333,-0.6351,-0.6315,-0.6343,-0.6321,-0.632,-0.6311,-0.6311,-0.6237,-0.6312,-0.6312,-0.6312,-0.6312,0,-0.6247,-0.6231,-0.6261,-0.6251,-0.6234,-0.6258,-0.6241,-0.625,-0.6258,-0.6251,-0.6277,-0.6269,-0.6295,-0.629,-0.6305,-0.6289,-0.6289,-0.6296,-0.6299,-0.6293,-0.6292,-0.6291,-0.6294,-0.631,-0.631,-0.6311,-0.6311,0,-0.6182,-0.6201,-0.6187,-0.6204,-0.6208,-0.6195,-0.6209,-0.6201,-0.6214,-0.6204,-0.6204,-0.6224,-0.6219,-0.6238,-0.6237,-0.6247,-0.6223,-0.6233,-0.6221,-0.6223,-0.6199,-0.6201,-0.6121,-0.6111,-0.6193,-0.6192,-0.6192,0,-0.6145,-0.6134,-0.615,-0.6147,-0.6152,-0.6147,-0.6147,-0.617,-0.6168,-0.6177,-0.6167,-0.6165,-0.6164,-0.6156,-0.617,-0.6169,-0.6178,-0.615,-0.6178,-0.6171,-0.6176,-0.6176,-0.6175,-0.6144,-0.6143,-0.6142,-0.6142,0,-0.6077,-0.6087,-0.6086,-0.6087,-0.6086,-0.6088,-0.6092,-0.6088,-0.6114,-0.611,-0.6106,-0.6106,-0.6105,-0.6102,-0.6104,-0.611,-0.6129,-0.6133,-0.6128,-0.612,-0.6113,-0.6115,-0.6204,-0.6134,-0.6135,-0.6136,-0.6136,-0.6136,-0.6024,-0.6015,-0.6025,-0.6022,-0.6028,-0.6031,-0.6024,-0.6036,-0.6033,-0.6035,-0.6049,-0.6042,-0.605,-0.6055,-0.6059,-0.6053,-0.6066,-0.6059,-0.6057,-0.6054,-0.6049,-0.6114,-0.6054,-0.6054,-0.6054,-0.6055,-0.6055,0,-0.5956,-0.5964,-0.5962,-0.5967,-0.5964,-0.5984,-0.5989,-0.5986,-0.598,-0.5986,-0.5985,-0.598,-0.5977,-0.5991,-0.599,-0.5983,-0.5992,-0.5982,-0.5982,-0.5983,-0.6038,-0.6043,-0.5975,-0.5975,-0.5975,-0.5975,-0.5975,-0.5975,-0.5921,-0.5906,-0.5918,-0.5906,-0.5914,-0.5908,-0.5909,-0.5912,-0.5917,-0.591,-0.5908,-0.5918,-0.5927,-0.5927,-0.5925,-0.5929,-0.5927,-0.5914,-0.5921,-0.5972,-0.5979,-0.5987,-0.5991,-0.5913,-0.5913,-0.5866,-0.5865,-0.5865]},{"header":{"parameterUnit":"m.s-1","parameterCategory":1,"la1":30.2991,"la2":30.254,"lo1":-89.0895,"lo2":-89.0444,"dy":0.0017,"dx":0.0017,"nx":28,"ny":28,"refTime":"2025-02-03T09:00:00:Z","depth":0,"parameterNumber":3,"parameterNumberName":"V-component_of_WINDS"},"data":[0,0,0,0,0,0,0,0,0,0,0,0,0,0,0,0,0,0,0,0,0,0,0,0,0,0,0,0,0,0,0,0,0,0,0,0,0,0,0,0,0,0,0,0,0,0,0,0,0,0,0,0,0,0,0,0,0,0,-0.3204,-0.3204,0,-0.3271,-0.3272,-0.3272,-0.3328,-0.3328,-0.3329,-0.333,-0.3398,-0.3399,-0.3401,0,0,0,0,0,0,0,0,0,0,0,0,0,-0.3123,-0.3124,-0.3204,-0.3204,-0.3205,-0.3271,-0.3272,-0.3272,-0.3328,-0.3328,-0.3329,-0.333,-0.3398,-0.3399,-0.3401,0,0,0,0,0,0,0,0,0,0,0,0,0,-0.3171,-0.3125,-0.3203,-0.3241,-0.3245,-0.327,-0.3272,-0.3273,-0.3328,-0.3328,-0.3329,-0.333,-0.3397,-0.3399,-0.3401,-0.3395,0,0,-0.3407,-0.3408,0,0,0,0,0,0,0,0,-0.3168,-0.3174,-0.3234,-0.3238,-0.3243,-0.3292,-0.3268,-0.3314,-0.3327,-0.3296,-0.333,-0.3331,-0.3362,-0.3367,-0.3378,-0.3398,-0.3401,-0.3407,-0.3408,-0.3409,-0.3409,0,0,0,0,0,0,0,-0.3165,-0.3171,-0.323,-0.3235,-0.324,-0.3254,-0.3262,-0.3277,-0.3323,-0.3299,-0.3303,-0.331,-0.3364,-0.3376,-0.338,-0.3402,-0.3407,-0.3409,-0.341,-0.3411,-0.3421,-0.3421,0,0,0,0,0,0,-0.3156,-0.3168,-0.3228,-0.3232,-0.3207,-0.3255,-0.3263,-0.3275,-0.3323,-0.3331,-0.3309,-0.3313,-0.3372,-0.3377,-0.3382,-0.3378,-0.3409,-0.3411,-0.3412,-0.3422,-0.3421,-0.342,0,0,0,0,0,0,-0.3154,-0.316,-0.3225,-0.3201,-0.3211,-0.3255,-0.3268,-0.3276,-0.3287,-0.3331,-0.334,-0.3312,-0.3373,-0.3379,-0.3391,-0.3381,-0.3412,-0.3413,-0.3423,-0.3422,-0.3421,-0.337,0,0,0,0,0,0,-0.3151,-0.3159,-0.3158,-0.3201,-0.3212,-0.3233,-0.3267,-0.3277,-0.329,-0.3295,-0.3336,-0.3344,-0.3374,-0.3388,-0.3393,-0.3385,-0.3415,-0.3424,-0.3423,-0.3421,-0.3373,-0.3367,-0.3362,0,0,0,0,0,-0.3148,-0.3141,-0.3157,-0.3164,-0.321,-0.3233,-0.3239,-0.3274,-0.3289,-0.3288,-0.3316,-0.3343,-0.3382,-0.3389,-0.3395,-0.3387,-0.3425,-0.3423,-0.3421,-0.3375,-0.3368,-0.3363,0,0,0,0,0,0,-0.3095,-0.3147,-0.3166,-0.3172,-0.3198,-0.3242,-0.3241,-0.3265,-0.3287,-0.329,-0.3333,-0.3341,-0.3349,-0.3369,-0.3376,-0.3384,-0.3407,-0.3406,-0.337,-0.3364,-0.3359,-0.3353,-0.3416,0,0,0,0,0,-0.3084,-0.3098,-0.3143,-0.3144,-0.3156,-0.3196,-0.3207,-0.3232,-0.326,-0.3271,-0.33,-0.3326,-0.3344,-0.3355,-0.3374,-0.3376,-0.3386,-0.3374,-0.3368,-0.3364,-0.3363,-0.3365,-0.336,-0.3414,-0.3414,-0.3414,0,0,-0.3061,-0.3091,-0.3098,-0.3134,-0.3156,-0.317,-0.3205,-0.3217,-0.3227,-0.3273,-0.3285,-0.3308,-0.334,-0.3346,-0.3351,-0.3364,-0.335,-0.3362,-0.3358,-0.3359,-0.3362,-0.3357,-0.3353,-0.3413,-0.3413,-0.3413,0,0,-0.3027,-0.3051,-0.3055,-0.3077,-0.311,-0.3137,-0.3138,-0.3179,-0.3196,-0.3209,-0.3243,-0.3256,-0.3287,-0.3308,-0.3323,-0.3297,-0.3321,-0.3302,-0.3274,-0.3276,-0.3272,-0.3268,-0.3258,-0.3254,-0.33,-0.33,-0.33,0,-0.2994,-0.3016,-0.3053,-0.3064,-0.3079,-0.3121,-0.3125,-0.3144,-0.3182,-0.3191,-0.3205,-0.3245,-0.3269,-0.3281,-0.3275,-0.3286,-0.3288,-0.3297,-0.3269,-0.3266,-0.3263,-0.3254,-0.3251,-0.3298,-0.3298,-0.3298,-0.3298,0,-0.2974,-0.2988,-0.2987,-0.3023,-0.3038,-0.3045,-0.3084,-0.3094,-0.3118,-0.3143,-0.3157,-0.3187,-0.3214,-0.3218,-0.3242,-0.3234,-0.3241,-0.3261,-0.3286,-0.3255,-0.3247,-0.3244,-0.3294,-0.3295,-0.3295,-0.3296,0,0,-0.2907,-0.2964,-0.2963,-0.298,-0.302,-0.3032,-0.3041,-0.3067,-0.3074,-0.31,-0.3108,-0.3133,-0.3152,-0.3169,-0.3195,-0.3197,-0.3173,-0.3217,-0.3219,-0.3208,-0.3166,-0.315,-0.3145,-0.319,-0.319,-0.319,-0.3164,0,-0.2878,-0.2897,-0.2931,-0.2939,-0.2952,-0.2992,-0.3,-0.3026,-0.305,-0.3065,-0.3092,-0.3109,-0.3133,-0.3144,-0.3147,-0.3175,-0.3166,-0.3178,-0.3198,-0.3198,-0.3188,-0.3142,-0.3124,-0.3098,-0.3161,-0.316,-0.316,0,-0.2847,-0.287,-0.2879,-0.2918,-0.2925,-0.2932,-0.2958,-0.2972,-0.3002,-0.3019,-0.3038,-0.3067,-0.3078,-0.3101,-0.3117,-0.3125,-0.3135,-0.315,-0.315,-0.3153,-0.3177,-0.3142,-0.3091,-0.3087,-0.3156,-0.3156,-0.3156,0,-0.2797,-0.283,-0.2839,-0.2852,-0.2899,-0.2902,-0.2922,-0.2953,-0.2966,-0.2989,-0.2998,-0.3022,-0.3035,-0.3053,-0.3087,-0.3101,-0.31,-0.3125,-0.3114,-0.3113,-0.3112,-0.3111,-0.306,-0.3119,-0.3119,-0.3119,-0.3119,0,-0.2761,-0.2764,-0.2817,-0.2823,-0.2828,-0.2868,-0.2872,-0.2895,-0.2922,-0.2933,-0.297,-0.2979,-0.3024,-0.3039,-0.3066,-0.3075,-0.3081,-0.3095,-0.3102,-0.3091,-0.3089,-0.3098,-0.3101,-0.3118,-0.3119,-0.3119,-0.3119,0,-0.2705,-0.2741,-0.2753,-0.2797,-0.2808,-0.2809,-0.2846,-0.2853,-0.288,-0.2893,-0.2899,-0.294,-0.2959,-0.2995,-0.3025,-0.3043,-0.3046,-0.3059,-0.3036,-0.304,-0.3027,-0.3027,-0.2979,-0.2975,-0.3037,-0.3036,-0.3036,0,-0.2679,-0.2683,-0.2727,-0.2737,-0.2755,-0.2771,-0.2784,-0.2824,-0.2837,-0.2871,-0.2874,-0.2896,-0.2916,-0.2944,-0.2977,-0.2999,-0.3012,-0.2994,-0.3016,-0.3005,-0.3011,-0.301,-0.3011,-0.2989,-0.2988,-0.2987,-0.2987,0,-0.263,-0.2647,-0.2666,-0.269,-0.2706,-0.2727,-0.275,-0.2756,-0.2801,-0.2814,-0.2834,-0.2849,-0.2879,-0.29,-0.2927,-0.2948,-0.2974,-0.298,-0.2978,-0.2967,-0.2953,-0.296,-0.3021,-0.298,-0.2981,-0.2981,-0.2982,-0.2982,-0.2588,-0.2593,-0.2625,-0.2644,-0.2666,-0.2687,-0.2695,-0.2723,-0.274,-0.2768,-0.279,-0.2808,-0.2838,-0.2878,-0.2897,-0.2911,-0.2924,-0.2922,-0.2921,-0.292,-0.2915,-0.2951,-0.2916,-0.2917,-0.2917,-0.2917,-0.2917,0,-0.254,-0.2562,-0.258,-0.2611,-0.2626,-0.2651,-0.2678,-0.2689,-0.2704,-0.273,-0.2749,-0.2772,-0.2792,-0.2827,-0.2851,-0.2856,-0.2868,-0.286,-0.286,-0.2864,-0.2903,-0.2902,-0.285,-0.285,-0.285,-0.285,-0.285,-0.285,-0.2517,-0.2526,-0.2548,-0.2569,-0.2591,-0.2609,-0.2622,-0.2642,-0.2663,-0.2687,-0.2704,-0.2727,-0.2756,-0.2782,-0.2802,-0.2812,-0.2819,-0.2806,-0.282,-0.2855,-0.2861,-0.2867,-0.2866,-0.2808,-0.2808,-0.278,-0.278,-0.2779]}]]